SL-23 DEB (43091 NORAD) Tracking and Keplerian Element Data

This shows tracking and keplerian element data for the satellite.

Feedback or suggestion? Click here.




ElementValue
Catalog43091
NameSL-23 DEB
Epoch Orbit457
Epoch Day24.84408191
Epoch Year2018
RAAN245.6163
Inclination51.3637
Eccentricity0.02026
Argument of Perigee182.779
Mean Anonmoly177.2096
Mean Motion15.90787438
Decay Rate0.02618804
L11 43091U 17086E 18024.84408191 .02618804 10891-4 99748-3 0 9991
L22 43091 51.3637 245.6163 0202600 182.7790 177.2096 15.90787438 4575

Live tracking and technical data element details for SL-23 DEB (NORAD 43091). SL-23 DEB can be tracked NOW for your location showing map with azimuth and elevation plus other details from your city location.

Track the satellite on the map from your city or location and see movement details for azimuth, elevation, latitude, longitude, range, height, and movement on the map or in text.







IsCatalogInMostPopularTable: catalog: 43091, numindb: 134
Update: records affected: 1



GetName: 43091 SL-23 DEB

Hit Count: updated at: Fri, 16 Nov 2018 12:40:16 GMT